#timestamp,LO_Frequency,Hit,StdDev 
1540306815.8,286047004.3,N
1540306835.6,286047002.4,N
1540306855.5,286047000.8,N
1540306875.3,286047002.3,N
1540306895.1,286047000.8,N
1540306915.9,286047002.7,N
1540306935.7,286047004.2,N
1540306955.5,286047003.4,N
1540306975.4,286047004.7,N
1540306995.2,286047007.3,Y
1540307015.1,286047004.6,P
1540307016.0,286047004.6,P
1540307035.8,286047005.2,P
1540307055.6,286047003.2,N
1540307075.5,286047001.7,N
1540307095.3,286047003.4,N
1540307115.2,286047005.3,Y
1540307135.9,286047004.0,P
1540307155.7,286047001.7,P
1540307175.6,286047001.6,N
1540307195.4,286047003.8,Y
1540307215.3,286047001.5,P
1540307235.1,286047001.8,N
1540307236.0,286047001.8,P
1540307255.8,286047006.0,Y
1540307275.7,286047002.2,P
1540307295.5,286047002.8,P
1540307315.4,286047002.2,P
1540307335.2,286047002.4,Y
1540307355.0,286047000.3,P
1540307355.9,286047000.3,N
1540307375.8,286046998.8,N
1540307395.6,286047001.2,N
1540307415.4,286046999.8,N
1540307435.3,286047000.3,N
1540307455.1,286047000.5,N
1540307475.9,286046999.7,N
1540307495.7,286046998.3,N
1540307515.5,286046996.7,Y
1540307535.4,286046994.9,P
1540307555.2,286046994.9,N
1540307575.1,286046995.2,N
1540307576.0,286046995.2,N
1540307595.8,286046995.0,N
1540307615.6,286046996.8,N
1540307635.5,286046996.9,N
1540307655.3,286046997.8,N
1540307675.1,286046998.0,N
1540307695.9,286046997.6,N
1540307715.7,286046995.9,N
1540307735.6,286046991.9,Y
1540307755.4,286046997.0,P
1540307775.2,286046996.5,P
1540307795.1,286046996.8,P
1540307796.0,286046996.8,Y
1540307815.8,286047001.3,P
1540307835.7,286047002.3,N
1540307855.5,286047001.9,N
1540307875.3,286047002.1,N
1540307895.2,286047003.9,N
1540307915.0,286047002.5,N
1540307915.9,286047002.5,N
1540307935.8,286047003.5,N
1540307955.6,286047004.1,N
1540307975.4,286047001.5,N
1540307995.3,286047001.7,N
1540308015.1,286047003.8,N
1540308035.8,286047003.2,N
1540308055.7,286047003.2,N
1540308075.5,286047001.4,N
1540308095.4,286047003.9,N
1540308115.2,286047005.8,Y
1540308135.0,286047005.9,P
1540308135.9,286047005.9,P
1540308155.8,286047006.7,P
1540308175.6,286047011.6,Y
1540308195.5,286047003.8,P
1540308215.3,286046999.7,N
1540308235.1,286047001.3,N
1540308255.9,286047002.9,N
1540308275.7,286047005.2,N
1540308295.6,286047004.0,N
1540308315.4,286046999.9,N
1540308335.2,286047001.5,N
1540308355.1,286047004.1,N
1540308356.0,286047004.1,N
1540308375.8,286047002.2,N
1540308395.6,286047001.2,N
1540308415.5,286047002.3,N
1540308435.3,286047003.0,N
1540308455.2,286047007.5,Y
1540308475.9,286047004.3,P
1540308495.7,286047004.0,P
1540308515.6,286047001.8,N
1540308535.4,286047004.1,Y
1540308555.3,286046997.5,P
1540308575.1,286046998.9,N
1540308576.0,286046998.9,N
1540308595.8,286047000.3,N
1540308615.7,286046999.9,N
1540308635.5,286047000.9,N
1540308655.3,286047000.8,N
1540308675.2,286046997.1,N
1540308695.0,286046999.1,N
1540308695.9,286046999.1,N
1540308715.8,286047001.1,N
1540308735.6,286046999.1,N
1540308755.4,286046998.1,N
1540308775.3,286047000.8,N
1540308795.1,286047000.6,N
1540308815.8,286047001.2,N
1540308835.7,286046997.1,N
1540308855.5,286046997.3,N
1540308875.3,286046998.9,N
1540308895.2,286046999.3,N
1540308915.0,286046999.3,N
1540308915.9,286046999.3,N
1540308935.8,286046998.6,N
1540308955.6,286046995.3,Y
1540308975.4,286046997.4,P
1540308995.3,286046997.8,N
1540309015.1,286046999.2,N
1540309035.8,286046997.7,N
1540309055.7,286046995.8,Y
1540309075.5,286046997.4,P
1540309095.4,286046997.9,P
1540309115.2,286046997.7,P
1540309135.0,286046998.9,Y
1540309135.9,286046998.9,P
1540309155.8,286047002.8,P
1540309175.6,286047004.0,N
1540309195.5,286047001.6,N
1540309215.3,286047000.1,N
1540309235.1,286046999.5,N
1540309255.9,286046997.4,N
1540309275.7,286046998.4,N
1540309295.5,286047000.1,N
1540309315.4,286047001.4,N
1540309335.2,286047005.3,N
1540309355.0,286047006.0,N
1540309355.9,286047006.0,N
1540309375.8,286047002.1,N
1540309395.6,286047004.3,N
1540309415.5,286047003.5,N
1540309435.3,286047003.0,N
1540309455.1,286047003.9,N
1540309475.9,286047002.5,N
1540309495.7,286047003.9,N
1540309515.5,286047002.1,N
1540309535.4,286047003.4,N
1540309555.2,286047005.2,N
1540309575.0,286047003.3,N
1540309575.9,286047003.3,N
1540309595.8,286047005.9,N
1540309615.6,286047004.8,N
1540309635.5,286047003.8,N
1540309655.3,286047004.2,N
1540309675.1,286047004.3,N
1540309695.9,286047002.2,N
1540309715.7,286047003.6,N
1540309735.6,286047003.9,N
1540309755.4,286047003.2,N
1540309775.2,286047005.2,N
1540309795.1,286047005.7,N
1540309796.0,286047005.7,N
1540309815.8,286047003.2,N
1540309835.6,286047004.4,Y
1540309855.5,286046994.9,P
1540309875.3,286046995.3,N
1540309895.2,286046999.5,N
1540309915.9,286046998.4,N
1540309935.7,286046998.7,N
1540309955.6,286046996.9,N
1540309975.4,286046997.3,N
1540309995.2,286046999.2,N
1540310015.1,286047001.1,N
1540310016.0,286047001.1,N
1540310035.8,286047002.2,N
1540310055.6,286047002.1,N
1540310075.5,286047002.1,N
1540310095.3,286047002.8,N
1540310115.2,286047000.9,N
1540310135.9,286047001.1,N
1540310155.7,286046999.1,N
1540310175.6,286046998.3,N
1540310195.4,286047001.0,N
1540310215.2,286046999.3,N
1540310235.1,286046996.9,N
1540310236.0,286046996.9,N
1540310255.8,286046996.6,N
1540310275.7,286046997.7,N
1540310295.5,286046997.4,N
1540310315.3,286046995.9,N
1540310335.2,286046998.0,N
1540310355.0,286046994.4,N
1540310355.9,286046994.4,N
1540310375.7,286046996.4,N
1540310395.6,286046998.0,N
